Regional Weather Roundup
Issued by NWS

Home | Current Version | Previous Version | Graphics & Text | Print | Product List | Glossary On
Versions: 1 2 3 4 5 6 7 8 9 10 11 12 13 14 15 16 17 18 19 20 21 22 23 24 25 26 27 28 29 30 31 32 33 34 35 36 37 38 39 40 41 42 43 44 45 46 47 48 49 50
000
ASUS43 KLOT 191403
RWRIL

ILLINOIS REGIONAL WEATHER ROUNDUP
NATIONAL WEATHER SERVICE CHICAGO/ROMEOVILLE IL
800 AM CST FRI JAN 19 2018

NOTE: "FAIR" INDICATES FEW OR NO CLOUDS BELOW 12,000 FEET WITH NO
SIGNIFICANT WEATHER AND/OR OBSTRUCTIONS TO VISIBILITY.

* THESE STATIONS ARE NOT UNDER NWS QUALITY CONTROL. THEY ALSO MAY NOT
  REPORT WEATHER SUCH AS PRECIPITATION OR FOG.

ILZ001-002-007-009-015-016-024-191500-
NORTHWEST ILLINOIS

CITY           SKY/WX    TMP DP  RH WIND       PRES   REMARKS
MOLINE         FAIR      30  20  66 SW12      29.87F WCI  20
STERLING*      FAIR      28  21  75 VRB5      29.89F WCI  23
SAVANNA*       FAIR      24  19  81 S6        29.86F WCI  17
$$

ILZ003-004-008-010-011-017-018-191500-
NORTH CENTRAL ILLINOIS

CITY           SKY/WX    TMP DP  RH WIND       PRES   REMARKS
ROCKFORD       CLOUDY    28  20  71 SW9       29.88F WCI  19
FREEPORT*      FAIR      27  20  76 SW16      29.86S WCI  15
ROCHELLE*      FAIR      26  20  79 S14       29.89R WCI  14
DE KALB*       FAIR      26  19  77 S10       29.89R WCI  15
PERU*          FAIR      28  18  66 SW13      29.94S WCI  18
$$

ILZ005-006-012>014-019>023-191500-
NORTHEAST ILLINOIS

CITY           SKY/WX    TMP DP  RH WIND       PRES   REMARKS
CHICAGO-OHARE  FAIR      29  18  63 SW16      29.89S WCI  17
CHICAGO-MIDWAY FAIR      30  19  63 SW13      29.92S WCI  20
AURORA         FAIR      25  18  74 S13       29.91R WCI  14
LANSING*       FAIR      24  19  78 SW12      29.95S WCI  13
JOLIET*        FAIR      29  19  66 SW8       29.94R WCI  21
WAUKEGAN       FAIR      27  19  72 SW10      29.86S WCI  17
DUPAGE AIRPORT FAIR      28  20  71 SW15      29.89S WCI  16
KANKAKEE*      FAIR     N/A N/A N/A SW13G20   29.98S
WHEELING       FAIR      29  20  69 SW9       29.90S WCI  20
MORRIS*        FAIR      27  18  70 SW13      29.93R WCI  16
ROMEOVILLE*    FAIR      28  19  71 SW13      29.93R WCI  17
NORTHERLY ISL    N/A     30  18  60 SW6         N/A  WCI  24
$$

LMZ740>746-191500-
SOUTHERN LAKE MICHIGAN

STATION/POSITION SKY/WX   TEMP    WIND        PRES    VSBY  WAVE
                          AIR SEA DIR/SP/G                  HT/PER
                          (F)     (DEG/KT/KT) (MB)    (MI)  (FT/S)
HARRISON CRIB              32     200/ 19/ 23   N/A
BURNHAM HARBOR             30     210/  4/ 13   N/A
CALUMET HARBOR             27     190/ 11/ 15 1012.5F
BURNS HARBOR               27     190/ 17/ 21 1014.2F
MICHIGAN CITY              28     180/ 15/ 16   N/A
$$

ILZ025>027-034>036-040-047-049-050-058-095>099-191500-
WEST-CENTRAL ILLINOIS

CITY           SKY/WX    TMP DP  RH WIND       PRES   REMARKS
QUINCY         CLOUDY    31  16  54 SW16      29.96F WCI  20
GALESBURG*     FAIR      29  21  72 S10       29.94R WCI  20
MACOMB*        CLOUDY    31  19  60 SW14G21   29.97R WCI  21
JACKSONVILLE*  CLOUDY    30  14  51 S14       29.99F WCI  20
PITTSFIELD*    CLOUDY    32  17  52 SW8       30.00F WCI  25
$$

ILZ028>032-037-038-041>044-048-051>054-059>061-191500-
CENTRAL ILLINOIS

CITY           SKY/WX    TMP DP  RH WIND       PRES   REMARKS
PONTIAC        FAIR      28  19  67 SW14      29.96S WCI  17
BLOOMINGTON    FAIR      25  17  72 S16       29.97F WCI  12
DECATUR        FAIR      25  18  74 SW16      30.03F WCI  12
PEORIA         FAIR      26  18  71 S8        29.96F WCI  18
LACON*         FAIR      30  18  61 SW12      29.95R WCI  20
LINCOLN*       FAIR      27  18  71 S7        30.00F WCI  19
SPRINGFIELD    FAIR      29  16  58 S16       30.01F WCI  17
TAYLORVILLE    FAIR      25  17  72 S13       30.05S WCI  13
$$

ILZ033-039-045-046-055>057-062-063-191500-
EAST-CENTRAL ILLINOIS

CITY           SKY/WX    TMP DP  RH WIND       PRES   REMARKS
CHAMPAIGN      FAIR      23  16  74 S15       30.03F WCI  10
DANVILLE*      FAIR      23  15  71 S15       30.03R WCI  10
RANTOUL*       FAIR      26  18  74 S12       30.02F WCI  15
MATTOON        FAIR      22  15  75 S13       30.06S WCI  10
PARIS*         FAIR      24  17  75 S13       30.09S WCI  12
$$

ILZ079-100>102-191500-
SOUTHWEST ILLINOIS

CITY           SKY/WX    TMP DP  RH WIND       PRES   REMARKS
ALTON          PTCLDY    27  16  63 S14       30.08F WCI  15
BELLEVILLE     CLOUDY    27  16  62 SW10      30.10F WCI  17
CAHOKIA*       CLOUDY    30  14  51 S7        30.09F WCI  23
SPARTA*        CLOUDY    25  18  76 S9        30.15F WCI  15
$$

ILZ064>066-069>071-074>076-080>082-084>086-088>090-092>094-191500-
SOUTH-CENTRAL ILLINOIS

CITY           SKY/WX    TMP DP  RH WIND       PRES   REMARKS
CARBONDALE     FAIR      24  18  77 S10       30.18F WCI  14
CAIRO*         FAIR      19  15  83 S5        30.24F WCI  13
EFFINGHAM*     FAIR      26  17  67 S8        30.13S WCI  18
MARION         CLEAR     21  16  79 S12       30.19F WCI   9
MT. VERNON     FAIR      23  18  81 S10       30.16F WCI  12
CENTRALIA*     CLOUDY    26  19  74 S10       30.13S WCI  15
SALEM*         FAIR      27  17  66 S10       30.13S WCI  17
METROPOLIS*    FAIR      20  14  76 S5        30.25S WCI  14
$$

ILZ067-068-072-073-078-083-087-091-191500-
SOUTHEAST ILLINOIS

CITY           SKY/WX    TMP DP  RH WIND       PRES   REMARKS
LAWRENCEVILLE  FAIR      19  13  77 S10       30.17S WCI   7
FLORA*         FAIR      25  17  72 S15       30.14F WCI  13
FAIRFIELD*     FAIR      21  15  78 S8        30.16F WCI  11
HARRISBURG*    FAIR      22  16  79 SW3       30.21S
ROBINSON*      FAIR      21  14  73 S9        30.16R WCI  11
CARMI*         FAIR      17  13  82 S5        30.19F WCI  10
$$

ABBREVIATIONS USED IN REMARKS
   TC - TEMPERATURE IN CELSIUS
  WCI - WIND CHILL INDEX
   HX - HEAT INDEX
  VSB - VISIBILITY
$$




USA.gov is the U.S. government's official web portal to all federal, state and local government web resources and services.